• In Russia
  • List of Countries
  • For 7 days
  • Water Temperature
  • Satellite Maps
  • Weather Map
  • Weather Widgets
  • user-avatar
    Login

    Hourly Weather Solden

    Today, 24 January, Tuesday

    Time Temperature Precipitation Wind Pressure Humidity
    00:00 -20°C° 0 mm 0 mps 570 mmHg 86%
    01:00 -20°C° 0 mm 1 mps 570 mmHg 85%
    02:00 -20°C° 0 mm 1 mps 570 mmHg 83%
    03:00 -19°C° 0 mm 1 mps 571 mmHg 81%
    04:00 -19°C° 0 mm 1 mps 571 mmHg 79%
    05:00 -19°C° 0 mm 1 mps 571 mmHg 78%
    06:00 -19°C° 0 mm 1 mps 571 mmHg 78%
    07:00 -18°C° 0 mm 1 mps 571 mmHg 77%
    08:00 -15°C° 0 mm 1 mps 574 mmHg 76%
    09:00 -12°C° 0 mm 1 mps 576 mmHg 75%
    10:00 -8°C° 0 mm 1 mps 578 mmHg 74%
    11:00 -7°C° 0 mm 1 mps 579 mmHg 74%
    12:00 -6°C° 0 mm 1 mps 579 mmHg 74%
    13:00 -4°C° 0 mm 0 mps 580 mmHg 73%
    14:00 -6°C° 0 mm 1 mps 579 mmHg 77%
    15:00 -7°C° 0 mm 1 mps 579 mmHg 80%
    16:00 -8°C° 0 mm 1 mps 578 mmHg 83%
    17:00 -11°C° 0 mm 1 mps 577 mmHg 85%
    18:00 -13°C° 0 mm 1 mps 575 mmHg 87%
    19:00 -16°C° 0 mm 1 mps 574 mmHg 89%
    20:00 -17°C° 0 mm 1 mps 573 mmHg 89%
    21:00 -18°C° 0 mm 1 mps 573 mmHg 89%
    22:00 -19°C° 0 mm 1 mps 573 mmHg 88%
    23:00 -19°C° 0 mm 1 mps 573 mmHg 87%

    Tomorrow, 25 January, Wednesday

    Time Temperature Precipitation Wind Pressure Humidity
    00:00 -19°C° 0 mm 1 mps 573 mmHg 85%
    01:00 -19°C° 0 mm 1 mps 573 mmHg 84%
    02:00 -18°C° 0 mm 1 mps 573 mmHg 80%
    03:00 -17°C° 0 mm 1 mps 574 mmHg 77%
    04:00 -17°C° 0 mm 1 mps 574 mmHg 74%
    05:00 -16°C° 0 mm 1 mps 575 mmHg 73%
    06:00 -16°C° 0 mm 1 mps 575 mmHg 72%
    07:00 -15°C° 0 mm 1 mps 575 mmHg 71%
    08:00 -13°C° 0 mm 1 mps 577 mmHg 71%
    09:00 -10°C° 0 mm 1 mps 579 mmHg 71%
    10:00 -8°C° 0 mm 1 mps 580 mmHg 71%
    11:00 -7°C° 0 mm 1 mps 581 mmHg 71%
    12:00 -4°C° 0 mm 1 mps 581 mmHg 71%
    13:00 -3°C° 0 mm 1 mps 582 mmHg 71%
    14:00 -4°C° 0 mm 1 mps 581 mmHg 74%
    15:00 -6°C° 0 mm 1 mps 581 mmHg 77%
    16:00 -7°C° 0 mm 1 mps 580 mmHg 80%
    17:00 -9°C° 0 mm 1 mps 579 mmHg 80%
    18:00 -11°C° 0 mm 1 mps 578 mmHg 79%
    19:00 -14°C° 0 mm 1 mps 577 mmHg 79%
    20:00 -14°C° 0 mm 1 mps 577 mmHg 78%
    21:00 -14°C° 0 mm 1 mps 577 mmHg 77%
    22:00 -14°C° 0 mm 1 mps 577 mmHg 76%
    23:00 -14°C° 0 mm 1 mps 577 mmHg 76%

    Day after tomorrow, 26 January, Thursday

    Time Temperature Precipitation Wind Pressure Humidity
    00:00 -14°C° 0 mm 1 mps 577 mmHg 76%
    01:00 -14°C° 0 mm 1 mps 577 mmHg 75%
    02:00 -15°C° 0 mm 1 mps 577 mmHg 75%
    03:00 -15°C° 0 mm 1 mps 577 mmHg 74%
    04:00 -15°C° 0 mm 1 mps 576 mmHg 74%
    05:00 -15°C° 0 mm 1 mps 576 mmHg 74%
    06:00 -15°C° 0 mm 1 mps 576 mmHg 73%
    07:00 -15°C° 0 mm 1 mps 576 mmHg 73%
    08:00 -13°C° 0 mm 1 mps 578 mmHg 73%
    09:00 -10°C° 0 mm 1 mps 579 mmHg 72%
    10:00 -8°C° 0 mm 1 mps 581 mmHg 72%
    11:00 -6°C° 0 mm 1 mps 581 mmHg 72%
    12:00 -4°C° 0 mm 1 mps 582 mmHg 73%
    13:00 -3°C° 0 mm 1 mps 582 mmHg 73%
    14:00 -4°C° 0 mm 1 mps 581 mmHg 76%
    15:00 -4°C° 0 mm 1 mps 581 mmHg 78%
    16:00 -6°C° 0 mm 1 mps 581 mmHg 81%
    17:00 -9°C° 0 mm 1 mps 580 mmHg 82%
    18:00 -11°C° 0 mm 1 mps 579 mmHg 83%
    19:00 -13°C° 0 mm 1 mps 578 mmHg 85%
    20:00 -13°C° 0 mm 1 mps 578 mmHg 84%
    21:00 -15°C° 0 mm 2 mps 578 mmHg 84%
    22:00 -15°C° 0 mm 2 mps 578 mmHg 84%
    23:00 -15°C° 0 mm 2 mps 578 mmHg 84%

    27 January, Friday

    Time Temperature Precipitation Wind Pressure Humidity
    00:00 -15°C° 0 mm 2 mps 578 mmHg 84%
    01:00 -16°C° 0 mm 2 mps 578 mmHg 84%
    02:00 -16°C° 0 mm 2 mps 578 mmHg 84%
    03:00 -16°C° 0 mm 2 mps 578 mmHg 84%
    04:00 -15°C° 0 mm 1 mps 577 mmHg 84%
    05:00 -15°C° 0 mm 1 mps 577 mmHg 83%
    06:00 -15°C° 0 mm 1 mps 577 mmHg 83%
    07:00 -15°C° 0 mm 1 mps 577 mmHg 83%
    08:00 -13°C° 0 mm 1 mps 578 mmHg 81%
    09:00 -11°C° 0 mm 1 mps 580 mmHg 79%
    10:00 -9°C° 0 mm 1 mps 581 mmHg 76%
    11:00 -9°C° 0 mm 2 mps 581 mmHg 75%
    12:00 -8°C° 0 mm 2 mps 582 mmHg 74%
    13:00 -7°C° 0 mm 2 mps 582 mmHg 72%
    14:00 -6°C° 0 mm 1 mps 581 mmHg 75%
    15:00 -7°C° 0 mm 1 mps 581 mmHg 77%
    16:00 -7°C° 0 mm 1 mps 581 mmHg 79%
    17:00 -9°C° 0 mm 1 mps 580 mmHg 80%
    18:00 -11°C° 0 mm 1 mps 579 mmHg 81%
    19:00 -13°C° 0 mm 1 mps 578 mmHg 82%
    20:00 -13°C° 0 mm 1 mps 578 mmHg 81%
    21:00 -13°C° 0 mm 1 mps 578 mmHg 81%
    22:00 -13°C° 0 mm 1 mps 578 mmHg 80%
    23:00 -13°C° 0 mm 1 mps 578 mmHg 81%

    28 January, Saturday

    Time Temperature Precipitation Wind Pressure Humidity
    00:00 -13°C° 0 mm 1 mps 578 mmHg 81%
    01:00 -13°C° 0 mm 1 mps 578 mmHg 81%
    02:00 -13°C° 0 mm 1 mps 578 mmHg 81%
    03:00 -13°C° 0 mm 1 mps 578 mmHg 82%
    04:00 -14°C° 0 mm 1 mps 578 mmHg 83%
    05:00 -14°C° 0 mm 1 mps 578 mmHg 83%
    06:00 -14°C° 0 mm 1 mps 578 mmHg 83%
    07:00 -14°C° 0 mm 1 mps 578 mmHg 84%
    08:00 -11°C° 0 mm 1 mps 580 mmHg 82%
    09:00 -9°C° 0 mm 1 mps 581 mmHg 80%
    10:00 -7°C° 0 mm 1 mps 583 mmHg 78%
    11:00 -6°C° 0 mm 1 mps 583 mmHg 78%
    12:00 -3°C° 0 mm 1 mps 583 mmHg 77%
    13:00 -2°C° 0 mm 1 mps 584 mmHg 76%
    14:00 -3°C° 0 mm 1 mps 583 mmHg 79%
    15:00 -4°C° 0 mm 0 mps 583 mmHg 81%
    16:00 -5°C° 0 mm 0 mps 583 mmHg 83%
    17:00 -7°C° 0 mm 0 mps 581 mmHg 85%
    18:00 -10°C° 0 mm 0 mps 580 mmHg 87%
    19:00 -12°C° 0 mm 0 mps 579 mmHg 90%
    20:00 -12°C° 0 mm 1 mps 579 mmHg 90%
    21:00 -12°C° 0 mm 1 mps 579 mmHg 90%
    22:00 -12°C° 0 mm 1 mps 580 mmHg 90%
    23:00 -12°C° 0 mm 1 mps 580 mmHg 90%

    29 January, Sunday

    Time Temperature Precipitation Wind Pressure Humidity
    00:00 -12°C° 0 mm 1 mps 580 mmHg 90%
    01:00 -12°C° 0 mm 1 mps 580 mmHg 91%
    02:00 -12°C° 0 mm 1 mps 580 mmHg 90%
    03:00 -14°C° 0 mm 2 mps 580 mmHg 90%
    04:00 -14°C° 0 mm 2 mps 580 mmHg 89%
    05:00 -14°C° 0 mm 2 mps 580 mmHg 88%
    06:00 -14°C° 0 mm 2 mps 581 mmHg 87%
    07:00 -14°C° 0 mm 2 mps 581 mmHg 87%
    08:00 -12°C° 0 mm 2 mps 582 mmHg 84%
    09:00 -8°C° 0 mm 1 mps 583 mmHg 81%
    10:00 -6°C° 0 mm 1 mps 584 mmHg 79%
    11:00 -4°C° 0 mm 1 mps 585 mmHg 77%
    12:00 -3°C° 0 mm 1 mps 585 mmHg 76%
    13:00 -1°C° 0 mm 1 mps 586 mmHg 74%
    14:00 -3°C° 0 mm 0 mps 585 mmHg 78%
    15:00 -4°C° 0 mm 0 mps 585 mmHg 81%
    16:00 -5°C° 0 mm 0 mps 584 mmHg 84%
    17:00 -8°C° 0 mm 0 mps 582 mmHg 86%
    18:00 -11°C° 0 mm 0 mps 580 mmHg 88%
    19:00 -15°C° 0 mm 0 mps 579 mmHg 90%
    20:00 -14°C° 0 mm 0 mps 579 mmHg 90%
    21:00 -14°C° 0 mm 0 mps 580 mmHg 90%
    22:00 -13°C° 0 mm 0 mps 580 mmHg 90%
    23:00 -13°C° 0 mm 1 mps 580 mmHg 90%
    Show more